Regional Weather Roundup
Issued by NWS State College, PA

Home | Current Version | Previous Version | Graphics & Text | Print | Product List | Glossary Off
Versions: 1 2 3 4 5 6 7 8 9 10 11 12 13 14 15 16 17 18 19 20 21 22 23 24 25 26 27 28 29 30 31 32 33 34 35 36 37 38 39 40 41 42 43 44 45 46 47 48 49 50

000
ASUS41 KCTP 241410
RWRCTP

REGIONAL WEATHER ROUNDUP
NATIONAL WEATHER SERVICE STATE COLLEGE PA
1000 AM EDT TUE MAY 24 2016

Note: "fair" indicates few or no clouds below 12,000 feet with no
significant weather and/or obstructions to visibility.

* = STATION THAT DOES NOT REPORT PRECIPITATION /E.G. RAIN...SNOW...ETC/
    THUNDER OR FOG.

PAZ002>004-007>009-013>016-020>023-029>032-241500-
WESTERN PENNSYLVANIA

CITY           SKY/WX    TMP DP  RH WIND       PRES   REMARKS
ERIE           SUNNY     69  45  41 W7        30.07R
MEADVILLE      SUNNY     65  47  52 W7        30.09R
FRANKLIN*      SUNNY     66  45  45 W7        30.11S
NEW CASTLE     FAIR      66  53  63 SW3       30.10S
BEAVER COUNTY  SUNNY     63  50  63 CALM      30.08
BUTLER*        SUNNY     66  48  52 SW5       30.12F
PITTSBURGH INT SUNNY     67  51  56 S3        30.10R
PITTSBURGH     SUNNY     66  50  56 SW7       30.10R
INDIANA*       SUNNY     64  55  72 W8        30.13R
LATROBE        SUNNY     64  57  77 SW12      30.11S
WASHINGTON CO* SUNNY     66  55  68 W5        30.12R
$$

PAZ004>006-010>012-017>019-024>028-033>037-041-042-045-046-049>053-241500-
CENTRAL PENNSYLVANIA

CITY           SKY/WX    TMP DP  RH WIND       PRES   REMARKS
BRADFORD       SUNNY     69  42  37 NW10      30.07S
DUBOIS         SUNNY     66  49  54 SW8       30.07R
CLEARFIELD     SUNNY     64  51  62 SW7       30.06S
JOHNSTOWN      SUNNY     64  44  48 W7        30.10R
ALTOONA        SUNNY     66  46  48 VRB3      30.07S
STATE COLLEGE  SUNNY     68  50  52 CALM      30.04S
WILLIAMSPORT   SUNNY     69  48  47 W8        29.98S
SELINSGROVE    SUNNY     70  54  56 CALM      30.00R
FT INDIANTOWN  SUNNY     72  49  44 VRB2      29.97S
CAPITAL CITY   SUNNY     73  48  41 W7        29.99S
HARRISBURG     MOSUNNY   71  52  50 NW12      29.98S
YORK           SUNNY     71  50  47 NW10      30.00R
$$

PAZ038>040-043-044-047-048-054-055-060>062-067>071-241500-
EASTERN PENNSYLVANIA

CITY           SKY/WX    TMP DP  RH WIND       PRES   REMARKS
SCRANTON       SUNNY     68  46  45 NW6       29.96S
MOUNT POCONO   CLOUDY    59  42  53 NW10      29.96F
ALLENTOWN      MOSUNNY   68  53  58 VRB3      29.95S
QUAKERTOWN*    MOSUNNY   68  54  60 CALM      29.96S
READING        SUNNY     71  49  45 N3        29.96R
LANCASTER      SUNNY     69  52  54 W9G17     29.98R
COATESVILLE      N/A    N/A N/A N/A MISG        N/A
POTTSTOWN      SUNNY     67  57  70 W6        29.97S
BLUE BELL      MOSUNNY   64  57  77 W3        29.95R
DOYLESTOWN     CLOUDY    67  54  63 CALM      29.94S
WILLOW GROVE   NOT AVBL
NORTH PHILA    MOSUNNY   68  59  73 N6        29.97R
PHILADELPHIA   PTSUNNY   68  56  65 VRB5      29.95R
$$



USA.gov is the U.S. government's official web portal to all federal, state and local government web resources and services.